Retour au catalogue

STARLINK-5405

ActifCommunicationsVLEO
NORAD 54863·PAYLOAD·🇺🇸 United States

Lancé Dec 28, 2022 depuis Cape Canaveral Space Force Station

Loading…

Prochains Passages (prochaines 24 heures)

TLE

FraisSource: CelesTrak SupGP

Époque: Sep 14, 2026, 21:23 UTC

1 54863C 22177AV  26257.89145833 -.00024229  00000+0 -87778-3 0  2575
2 54863  42.9993 133.0927 0001170 246.7955 208.9824 15.27582434    11

Suivez STARLINK-5405 en temps réel avec AllMySat

Download on the App Store